This is the latest recevied weather packets stored in our database for station/object OE9XVI-6. If no packets are shown the sender has not sent any weather packets the latest 10 day(s).
| Time | Temp. | Humidity | Pressure | Rain* | Wind** | Luminosity | Snow |
|---|---|---|---|---|---|---|---|
| 1777892218 | 18.89° C | 38% | 1015.5 hPa | 0 mm | - | - | - |
| 1777891620 | 18.89° C | 40% | 1015.6 hPa | 0 mm | - | - | - |
| 1777891017 | 19.44° C | 39% | 1015.6 hPa | 0 mm | - | - | - |
| 1777890417 | 19.44° C | 39% | 1015.6 hPa | 0 mm | - | - | - |
| 1777889817 | 19.44° C | 42% | 1015.7 hPa | 0 mm | - | - | - |
| 1777888617 | 19.44° C | 38% | 1015.8 hPa | 0 mm | - | - | - |
| 1777887417 | 18.33° C | 43% | 1016 hPa | 0 mm | - | - | - |
| 1777886217 | 17.22° C | 44% | 1016 hPa | 0 mm | - | - | - |
| 1777885020 | 16.67° C | 44% | 1016.2 hPa | 0 mm | - | - | - |
| 1777884417 | 16.67° C | 46% | 1016.3 hPa | 0 mm | - | - | - |
| 1777883217 | 17.22° C | 54% | 1016.3 hPa | 0 mm | - | - | - |
| 1777882021 | 15.56° C | 58% | 1016.4 hPa | 0 mm | - | - | - |
| 1777881417 | 16.11° C | 54% | 1016.4 hPa | 0 mm | - | - | - |
| 1777880817 | 17.22° C | 55% | 1016.3 hPa | 0 mm | - | - | - |
| 1777879617 | 17.22° C | 56% | 1016.3 hPa | 0 mm | - | - | - |
| 1777879017 | 16.67° C | 58% | 1016.2 hPa | 0 mm | - | - | - |
| 1777878419 | 15.56° C | 61% | 1016.3 hPa | 0 mm | - | - | - |
| 1777877217 | 14.44° C | 60% | 1016.3 hPa | 0 mm | - | - | - |
| 1777876017 | 12.78° C | 63% | 1016.2 hPa | 0 mm | - | - | - |
| 1777874221 | 11.67° C | 62% | 1016.1 hPa | 0 mm | - | - | - |
| 1777873619 | 11.11° C | 65% | 1016.2 hPa | 0 mm | - | - | - |
| 1777873017 | 10.56° C | 64% | 1016.1 hPa | 0 mm | - | - | - |
| 1777872417 | 10.56° C | 63% | 1016.1 hPa | 0 mm | - | - | - |
| 1777871817 | 10.56° C | 61% | 1016 hPa | 0 mm | - | - | - |
| 1777871218 | 10.56° C | 63% | 1016 hPa | 0 mm | - | - | - |
* Rain latest hour (hover to see other rain measurements)
** Current wind speed in m/s (hover to see current wind gust speed)